BREEZE-KM R/B, 43754

Orbit data source: Space-Track

BREEZE-KM R/B, 43754 is space debris in LEO originally from a launch on Fri, 30 Nov 2018 UTC launched from the Plesetsk Missile And Space Complex (PKMTR). Debris objects in space refer to the collection of defunct objects orbiting the Earth. Examples of debris include non-operational satellites, rocket bodies, and fragments generated from explosions, collisions, or faulty payload assembly.

Loading next visibility...
Identifier
43754, 2018-097D
Orbit
LEO
Country
Flag of CISCIS
Related business
Manufacturer
Khrunichev
Mission
Spacecraft
Bus & Motor
BRIZ, S5.92
Mass
2,370 kg wet, 2,370 kg dry
Launch date (UTC)
2018-11-30 (7 years ago)
Launch vehicle
Unknown
Launch site
Plesetsk Missile And Space Complex (PKMTR)
Object type
Payload
Rocket body
Debris
Shape & HBR
Hex Cyl + 1 Rod, 2.0 m
Radar Cross Section
10.190 m², Large (>1 m²)

Expand to show TLE details & history
Last TLE update: 15 hours ago

TLE from 15 hours ago
0 BREEZE-KM R/B
1 43754U 18097D   25261.07146639  .00000027  00000-0  67181-4 0  9996
2 43754  82.5093 280.0121 0221414 221.8331 136.5665 12.80110048317604
Epoch: 2025-09-18T01:42Z
TLE epoch observation values (Epoch: 2025-09-18T01:42:54.696Z)
Latitude
-0.00006°
Longitude
-102.95413°
Altitude
1,469.662 km
Speed
7.07 km/s
True Right ascension
18h 40m 02s
True Declination
0° 00' 00"
Sunlit
Object was in daylight at epoch
Visualization orbit readout
Latitude
Unknown
Longitude
Unknown
Altitude
Unknown
Speed
Unknown
Apparent Right ascension
Unknown
Apparent Declination
Unknown
Sunlit
N/A
Visualization observer readout
Local Sidereal Time
09:50:05
Azimuth
Unknown
Elevation
Unknown
Doppler factor
Unknown
Orbital elements
Apogee altitude
1,509.177 km
Perigee altitude
1,167.471 km
Semi-major axis
7,716.461 km
Eccentricity
0.02214
Inclination
82.5093°
RAAN
280.0121°
Arg. of periapsis
221.8331°
True anomaly
138.27622°
Mean anomaly
136.5665°
Eccentric anomaly
137.42479°
Mean motion
3.20196 °/min
Orbital period
112.43 mins
BSTAR
0.000067181
Loading maneuver chart data...
Computing Atmospheric mass density...
Loading historical data...
Loading historical data...
Loading historical data...
Loading historical data...
Loading historical data...
Loading historical data...
Loading historical data...
Other satellites on launch #97 in the year 2018 (2018-11-30 UTC)

Documentation

Showing up to 5 results
|